This is the latest recevied weather packets stored in our database for station/object KD0RII. If no packets are shown the sender has not sent any weather packets the latest 10 day(s).
| Time | Temp. | Humidity | Pressure | Rain* | Wind** | Luminosity | Snow |
|---|---|---|---|---|---|---|---|
| 1777464993 | 6.11° C | 90% | 1022.5 hPa | 0 mm | - | 38 W/m² | - |
| 1777464688 | 5.56° C | 90% | 1022.5 hPa | 0 mm | - | 34 W/m² | - |
| 1777464385 | 5.56° C | 90% | 1022.2 hPa | 0 mm | - | 29 W/m² | - |
| 1777464081 | 5.56° C | 90% | 1022.2 hPa | 0 mm | - | 24 W/m² | - |
| 1777463780 | 5.56° C | 90% | 1022.1 hPa | 0 mm | - | 18 W/m² | - |
| 1777463475 | 5.56° C | 90% | 1022.3 hPa | 0 mm | - | 14 W/m² | - |
| 1777463171 | 5.56° C | 90% | 1022 hPa | 0 mm | - | 11 W/m² | - |
| 1777462867 | 5.56° C | 90% | 1022.1 hPa | 0 mm | - | 8 W/m² | - |
| 1777462564 | 5° C | 90% | 1022 hPa | 0 mm | - | 6 W/m² | - |
| 1777462259 | 5.56° C | 90% | 1021.9 hPa | 0 mm | - | 3 W/m² | - |
| 1777461955 | 5.56° C | 90% | 1021.8 hPa | 0 mm | - | 2 W/m² | - |
| 1777461652 | 5.56° C | 90% | 1021.8 hPa | 0 mm | - | 1 W/m² | - |
| 1777461347 | 5.56° C | 90% | 1021.7 hPa | 0 mm | - | 0 W/m² | - |
| 1777461043 | 5.56° C | 90% | 1021.8 hPa | 0 mm | - | 0 W/m² | - |
| 1777460739 | 5.56° C | 90% | 1021.7 hPa | 0 mm | - | 0 W/m² | - |
| 1777460436 | 5.56° C | 89% | 1021.1 hPa | 0 mm | - | 0 W/m² | - |
| 1777460131 | 5.56° C | 89% | 1021.4 hPa | 0 mm | - | 0 W/m² | - |
| 1777459828 | 5.56° C | 89% | 1021.4 hPa | 0 mm | - | 0 W/m² | - |
| 1777459525 | 5.56° C | 89% | 1021.5 hPa | 0 mm | - | 0 W/m² | - |
| 1777459223 | 5.56° C | 89% | 1021.3 hPa | 0 mm | - | 0 W/m² | - |
| 1777458921 | 5.56° C | 89% | 1021.6 hPa | 0 mm | - | 0 W/m² | - |
| 1777458617 | 5.56° C | 89% | 1021.2 hPa | 0 mm | - | 0 W/m² | - |
| 1777458314 | 5.56° C | 89% | 1021.5 hPa | 0 mm | - | 0 W/m² | - |
| 1777458010 | 5.56° C | 88% | 1021.5 hPa | 0 mm | - | 0 W/m² | - |
| 1777457706 | 5.56° C | 88% | 1021.2 hPa | 0 mm | - | 0 W/m² | - |
* Rain latest hour (hover to see other rain measurements)
** Current wind speed in m/s (hover to see current wind gust speed)